Погода в Анаполисе

Бразилия     16°20′00″S   48°56′04″W
темп.,
°C
ветер,
м/с
пор.,
м/с
влажн.,
%
обл.,
%
осадки,
мм/ч
давл.,
гПа
погр.,
м
3 декабря, пт
пт300:00+19вюв019295 0.0 101011
03:00+19ю1193100 0.0 100911
06:00+18вюв119395 0.0 101011
09:00+24в127524 0.1 1011588
12:00+28с116151 0.6 10091307
15:00+25ю227431 3.8 1008856
18:00+22ююв118610 1.1 100817
21:00+20юв118761 2.6 101111
4 декабря, сб
сб400:00+19вюв119076 0.5 101111
03:00+19в229187 0.6 101015
06:00+18в22920 0.0 101227
09:00+24всв24720 0.6 1013544
12:00+27в335565 0.3 10121808
15:00+24з117664 1.3 1011229
18:00+23вюв22801 1.0 101138
21:00+20в238886 2.4 101348
5 декабря, вс
вс500:00+20в269180 0.8 1014152
03:00+18в249446 1.3 101383
06:00+18в31095100 0.0 1014293
09:00+23всв578114 1.0 1015460
12:00+26всв346372 2.0 10131213
15:00+28в225226 2.4 10101732
18:00+23ссв228033 0.5 101144
21:00+20св22891 0.5 101312
6 декабря, пн
пн600:00+19ссв23905 0.1 101443
03:00+18ссв119219 0.3 101312
06:00+18ссз12972 0.3 101458
09:00+23ссз24770 0.6 1014460
12:00+26ссз456458 0.6 10131376
15:00+25ссз446866 1.4 10111196
18:00+22ссз358637 0.5 1011306
21:00+19ссз12967 1.6 101222
7 декабря, вт
вт700:00+18зсз119515 1.3 101312
03:00+18ссз129563 1.3 101017
06:00+18с22955 0.7 101127
09:00+23сз34835 2.1 1011424
12:00+25зсз337534 2.4 10101101
15:00+24зюз337873 5.6 1008861
18:00+22зюз129061 1.8 100861
21:00+19ссв11925 5.2 101013